Date,TemperatureHighF,TemperatureAvgF,TemperatureLowF,DewpointHighF,DewpointAvgF,DewpointLowF,HumidityHigh,HumidityAvg,HumidityLow,PressureMaxIn,PressureMinIn,WindSpeedMaxMPH,WindSpeedAvgMPH,GustSpeedMaxMPH,PrecipitationSumIn
2013-1-1,40.0,36.8,31.0,34.0,27.5,23.0,88,70,50,0.00,40.00,11,4,20,0.00
2013-1-2,37.0,31.2,26.0,31.0,28.5,25.0,98,90,71,0.00,40.00,7,3,11,0.00
2013-1-3,39.0,34.9,33.0,35.0,32.5,27.0,99,92,67,0.00,40.00,9,2,17,0.00
2013-1-4,32.0,27.0,21.0,32.0,26.9,20.0,99,99,98,0.00,40.00,0,0,0,0.00
2013-1-5,32.0,29.4,23.0,31.0,27.9,22.0,99,94,88,0.00,40.00,0,0,0,0.00
2013-1-6,35.0,29.3,20.0,31.0,26.6,19.0,97,90,75,0.00,40.00,7,1,12,0.00
2013-1-7,34.0,31.0,19.0,31.0,27.1,16.0,92,86,77,0.00,40.00,8,3,17,0.00
2013-1-8,19.0,12.5,8.0,16.0,10.7,6.0,93,92,88,0.00,40.00,7,4,9,0.00
2013-1-9,23.0,13.7,5.0,21.0,11.9,3.0,95,92,91,0.00,40.00,7,4,11,0.00
2013-1-10,27.0,23.0,18.0,26.0,21.8,17.0,96,95,93,0.00,40.00,7,3,15,0.00
2013-1-11,30.0,27.1,23.0,29.0,26.1,22.0,99,96,94,0.00,40.00,6,2,17,0.00
2013-1-12,33.0,30.8,26.0,33.0,30.7,26.0,99,99,99,0.00,40.00,6,2,12,0.00
2013-1-13,36.0,33.4,32.0,35.0,33.2,32.0,99,99,99,0.00,40.00,9,2,16,0.00
2013-1-14,40.0,35.3,30.0,39.0,30.7,20.0,99,84,60,0.00,40.00,7,3,19,0.00
2013-1-15,32.0,27.6,24.0,26.0,21.3,19.0,96,78,70,0.00,40.00,7,3,12,0.00
2013-1-16,29.0,28.2,26.0,28.0,27.3,25.0,97,97,96,0.00,40.00,4,1,9,0.00
2013-1-23,37.0,33.7,31.0,29.0,27.6,26.0,81,78,70,0.00,40.00,7,4,13,0.00
2013-1-24,35.0,28.8,22.0,32.0,26.8,21.0,99,92,84,0.00,40.00,6,3,14,0.00
2013-1-25,36.0,24.8,0.0,35.0,17.5,-4.0,99,75,43,0.00,40.00,7,4,22,0.00
2013-1-26,10.0,0.2,-13.0,-1.0,-7.3,-16.0,87,71,55,0.00,40.00,7,5,9,0.00
2013-1-27,5.0,-2.5,-18.0,-6.0,-13.6,-22.0,84,60,45,0.00,40.00,7,5,14,0.00
2013-1-28,9.0,3.6,-4.0,6.0,-8.3,-16.0,87,58,47,0.00,40.00,8,6,22,0.00
2013-1-29,15.0,11.2,9.0,11.0,7.2,5.0,89,84,79,0.00,40.00,8,5,25,0.00
2013-1-30,28.0,21.8,15.0,27.0,19.3,11.0,95,90,85,0.00,40.00,9,4,21,0.00
2013-1-31,31.0,29.4,27.0,31.0,29.3,27.0,99,99,99,0.00,40.00,2,0,4,0.00
2013-2-1,31.0,29.3,28.0,29.0,28.2,27.0,99,96,88,0.00,40.00,6,4,20,0.00
2013-2-2,33.0,31.4,30.0,33.0,30.8,29.0,98,97,95,0.00,40.00,5,2,12,0.00
2013-2-3,35.0,31.1,19.0,33.0,29.2,18.0,97,92,88,0.00,40.00,6,2,13,0.00
2013-2-4,35.0,28.8,16.0,34.0,27.9,15.0,99,97,95,0.00,40.00,6,2,7,0.00
2013-2-5,31.0,24.0,15.0,31.0,23.4,14.0,99,98,95,0.00,40.00,6,3,9,0.00
2013-2-6,30.0,25.0,16.0,28.0,23.0,15.0,98,92,80,0.00,40.00,6,3,9,0.00
2013-2-7,29.0,27.3,25.0,29.0,25.7,23.0,97,94,86,0.00,40.00,7,3,14,0.00
2013-2-8,33.0,29.3,24.0,33.0,28.9,24.0,99,98,97,0.00,40.00,6,2,16,0.00
2013-2-9,39.0,33.8,29.0,34.0,31.0,28.0,97,90,79,0.00,40.00,9,5,20,0.00
2013-2-10,36.0,33.6,29.0,34.0,31.0,22.0,97,91,71,0.00,40.00,9,3,16,0.00
2013-2-11,31.0,25.8,20.0,22.0,15.0,11.0,73,64,55,0.00,40.00,7,3,13,0.00
2013-2-12,28.0,25.8,22.0,26.0,22.6,16.0,93,88,63,0.00,40.00,6,4,16,0.00
2013-2-13,32.0,26.9,20.0,29.0,24.7,18.0,95,92,83,0.00,40.00,6,2,15,0.00
2013-2-14,33.0,31.5,28.0,31.0,28.7,26.0,97,90,76,0.00,40.00,11,4,28,0.00
2013-2-15,32.0,29.4,28.0,30.0,24.5,21.0,96,83,77,0.00,40.00,7,5,14,0.00
2013-3-1,35.0,30.7,15.0,30.0,26.2,14.0,96,84,69,0.00,40.00,4,2,11,0.00
2013-3-2,36.0,26.8,10.0,29.0,23.1,9.0,95,86,64,0.00,40.00,9,4,14,0.00
2013-3-3,35.0,29.5,25.0,28.0,25.1,23.0,92,83,70,0.00,40.00,6,2,14,0.00
2013-3-4,35.0,31.3,19.0,28.0,26.4,17.0,90,82,66,0.00,40.00,4,1,9,0.00
2013-3-5,38.0,27.2,14.0,28.0,23.4,13.0,96,86,66,0.00,40.00,7,-24,10,0.00
2013-3-6,36.0,31.2,26.0,30.0,27.3,24.0,94,85,75,0.00,40.00,6,2,12,0.00
2013-3-7,42.0,35.5,28.0,34.0,28.2,24.0,87,75,51,0.00,40.00,12,4,30,0.00
2013-3-8,45.0,35.0,19.0,31.0,25.6,18.0,96,71,45,0.00,40.00,9,4,17,0.00
2013-3-9,41.0,36.0,31.0,34.0,31.8,29.0,96,85,65,0.00,40.00,4,2,7,0.00
2013-3-10,32.0,30.9,30.0,30.0,25.6,21.0,95,81,69,0.00,40.00,7,5,15,0.00
2013-3-11,36.0,32.4,26.0,31.0,24.1,19.0,97,73,52,0.00,40.00,7,3,12,0.00
2013-3-12,35.0,29.6,6.0,21.0,10.3,2.0,83,46,33,0.00,40.00,9,5,23,0.00
2013-3-13,31.0,24.3,-2.0,8.0,3.7,-5.0,85,43,33,0.00,40.00,9,-23,18,0.00
2013-3-14,24.0,20.0,15.0,17.0,12.8,3.0,90,75,43,0.00,40.00,9,6,21,0.00
2013-3-15,32.0,23.8,9.0,17.0,11.0,7.0,89,59,40,0.00,40.00,7,4,16,0.00
2013-3-16,29.0,19.7,-4.0,15.0,9.0,-5.0,93,66,41,0.00,40.00,7,5,15,0.00
2013-3-17,37.0,22.4,-1.0,17.0,10.0,-3.0,94,63,34,0.00,40.00,7,3,9,0.00
2013-3-18,31.0,20.2,-3.0,16.0,10.0,-4.0,93,67,49,0.00,40.00,9,-7,11,0.00
2013-3-19,30.0,21.4,-5.0,9.0,5.9,-6.0,93,54,40,0.00,40.00,11,6,22,0.00
2013-3-20,28.0,21.1,-7.0,14.0,4.5,-9.0,88,50,37,0.00,40.00,10,4,21,0.00
2013-3-21,31.0,20.2,-4.0,17.0,9.5,-6.0,91,65,46,0.00,40.00,8,3,13,0.00
2013-3-22,33.0,27.4,23.0,31.0,24.8,16.0,99,90,71,0.00,40.00,7,2,14,0.00
2013-3-23,35.0,29.8,25.0,27.0,23.1,21.0,99,77,57,0.00,40.00,9,3,15,0.00
2013-3-24,29.0,25.3,21.0,24.0,20.5,14.0,96,83,61,0.00,40.00,7,4,15,0.00
2013-3-25,25.0,20.7,15.0,24.0,9.9,-1.0,98,65,49,0.00,40.00,13,6,24,0.00
2013-3-26,22.0,13.7,-4.0,9.0,2.9,-10.0,87,63,51,0.00,40.00,9,4,16,0.00
2013-3-27,22.0,13.6,-11.0,14.0,6.9,-13.0,90,76,62,0.00,40.00,9,6,18,0.00
2013-3-28,29.0,21.5,16.0,26.0,17.5,13.0,90,85,77,0.00,40.00,10,6,22,0.00
2013-3-29,36.0,32.1,29.0,32.0,28.9,26.0,97,88,79,0.00,40.00,9,-16,19,0.00
2013-3-30,37.0,32.6,29.0,34.0,30.4,-99.9,99,95,82,0.00,40.00,6,2,9,0.00
2013-3-31,38.0,31.1,25.0,34.0,29.3,24.0,99,93,74,0.00,40.00,7,2,13,0.00
2013-4-1,39.0,30.7,14.0,29.0,23.8,13.0,97,77,57,0.00,40.00,6,-24,7,0.00
2013-4-2,39.0,30.4,12.0,27.0,20.3,11.0,96,68,44,0.00,40.00,6,-24,14,0.00
2013-4-3,41.0,31.5,19.0,30.0,24.1,17.0,93,75,51,0.00,40.00,6,3,14,0.00
2013-4-4,39.0,31.1,13.0,25.0,21.0,12.0,97,68,47,0.00,40.00,9,5,19,0.00
2013-4-5,33.0,26.5,8.0,17.0,13.9,7.0,95,61,42,0.00,40.00,6,-24,13,0.00
2013-4-6,32.0,25.4,18.0,20.0,17.6,12.0,91,73,58,0.00,40.00,6,3,10,0.00
2013-4-7,27.0,21.2,10.0,12.0,7.6,3.0,74,56,42,0.00,40.00,7,3,16,0.00
2013-4-8,26.0,17.2,-3.0,12.0,6.9,-5.0,91,66,52,0.00,40.00,9,5,17,0.00
2013-4-9,23.0,18.2,1.0,14.0,6.0,-1.0,92,60,49,0.00,40.00,11,6,22,0.00
2013-4-10,23.0,17.3,11.0,13.0,6.7,1.0,92,65,46,0.00,40.00,9,4,14,0.00
2013-4-11,24.0,17.4,5.0,12.0,7.3,0.0,82,65,50,0.00,40.00,11,-16,21,0.00
2013-4-12,29.0,21.5,-3.0,9.0,6.3,-5.0,91,54,41,0.00,40.00,9,6,18,0.00
2013-4-13,32.0,24.7,2.0,16.0,9.0,-2.0,82,52,41,0.00,40.00,7,5,16,0.00
2013-4-14,36.0,27.9,3.0,21.0,15.6,2.0,93,62,45,0.00,40.00,7,4,10,0.00
2013-4-15,37.0,30.1,9.0,24.0,20.3,7.0,93,68,56,0.00,40.00,9,5,17,0.00
2013-4-16,35.0,29.5,9.0,23.0,15.9,8.0,96,58,45,0.00,40.00,7,-20,14,0.00
2013-4-17,34.0,27.1,6.0,18.0,14.4,5.0,95,61,41,0.00,40.00,7,4,13,0.00
2013-4-18,37.0,30.2,10.0,24.0,18.7,9.0,95,64,44,0.00,40.00,8,4,14,0.00
2013-4-19,40.0,32.4,10.0,25.0,20.2,9.0,97,62,47,0.00,40.00,8,-5,15,0.00
2013-4-20,40.0,31.8,13.0,31.0,24.2,12.0,95,74,58,0.00,40.00,6,3,8,0.00
2013-4-21,36.0,31.0,19.0,34.0,28.3,18.0,99,90,70,0.00,40.00,8,4,21,0.00
2013-4-22,44.0,34.1,21.0,34.0,27.1,20.0,99,79,46,0.00,40.00,6,3,13,0.00
2013-4-23,37.0,35.1,33.0,36.0,34.0,28.0,99,96,79,0.00,40.00,7,3,17,0.00
2013-4-24,45.0,37.8,33.0,39.0,34.5,33.0,99,89,64,0.00,40.00,6,2,9,0.00
2013-4-25,42.0,38.5,35.0,36.0,22.4,12.0,93,54,38,0.00,40.00,10,6,26,0.00
2013-4-26,38.0,33.1,24.0,21.0,12.0,8.0,73,42,35,0.00,40.00,10,-4,20,0.00
2013-4-27,41.0,35.0,24.0,26.0,22.1,18.0,87,60,46,0.00,40.00,10,-31,20,0.00
2013-4-28,40.0,33.6,20.0,23.0,17.6,11.0,82,53,43,0.00,40.00,7,4,15,0.00
2013-4-29,39.0,31.0,19.0,29.0,23.9,18.0,95,76,56,0.00,40.00,6,3,8,0.00
2013-4-30,41.0,36.3,30.0,34.0,29.3,26.0,88,76,63,0.00,40.00,7,-18,17,0.00
2013-5-1,41.0,36.6,32.0,33.0,31.4,29.0,96,82,66,0.00,40.00,10,4,21,0.00
2013-5-2,40.0,35.6,32.0,38.0,34.2,29.0,98,95,82,0.00,40.00,4,2,7,0.00
2013-5-3,44.0,37.5,34.0,38.0,32.5,23.0,99,85,46,0.00,40.00,4,2,13,0.00
2013-5-4,45.0,37.0,30.0,36.0,30.5,24.0,97,79,44,0.00,40.00,9,3,12,0.00
2013-5-5,44.0,35.5,26.0,33.0,27.8,25.0,97,76,49,0.00,40.00,7,-39,12,0.00
2013-5-6,44.0,36.3,27.0,30.0,27.0,23.0,96,71,45,0.00,40.00,6,3,17,0.00
2013-5-7,42.0,37.2,30.0,36.0,32.6,29.0,96,84,69,0.00,40.00,6,2,8,0.00
2013-5-8,47.0,39.3,28.0,36.0,30.9,25.0,99,74,50,0.00,40.00,9,4,16,0.00
2013-5-9,49.0,39.1,29.0,38.0,29.8,25.0,92,71,46,0.00,40.00,7,3,12,0.00
2013-5-10,51.0,40.3,27.0,36.0,29.4,-99.9,97,71,48,0.00,40.00,6,4,13,0.00
2013-5-11,49.0,42.6,37.0,42.0,37.9,-99.9,98,86,68,0.00,40.00,7,2,13,0.00
2013-5-12,51.0,44.6,38.0,41.0,37.4,32.0,99,78,49,0.00,40.00,7,2,11,0.00
2013-5-13,51.0,41.8,32.0,43.0,36.7,32.0,99,84,52,0.00,40.00,6,3,13,0.00
2013-5-14,45.0,40.5,31.0,39.0,25.6,19.0,97,57,40,0.00,40.00,7,4,12,0.00
2013-5-15,45.0,37.3,27.0,35.0,28.7,20.0,97,73,38,0.00,40.00,6,4,13,0.00
2013-5-16,40.0,35.6,36.0,39.0,19.6,-99.9,99,96,86,0.00,40.00,8,4,19,0.00
2013-5-17,44.0,38.8,34.0,38.0,31.3,-99.9,99,85,53,0.00,40.00,9,4,19,0.00
2013-5-18,41.0,36.4,32.0,33.0,23.0,14.0,98,62,33,0.00,40.00,15,5,29,0.00
2013-5-19,44.0,35.6,21.0,26.0,20.8,13.0,94,58,31,0.00,40.00,9,4,16,0.00
2013-5-20,45.0,36.8,23.0,35.0,27.7,21.0,94,71,44,0.00,40.00,8,4,16,0.00
2013-5-21,46.0,42.3,36.0,38.0,35.5,33.0,90,77,66,0.00,40.00,7,3,13,0.00
2013-5-22,45.0,42.4,38.0,43.0,39.3,35.0,97,89,76,0.00,40.00,6,2,11,0.00
2013-5-23,51.0,45.5,40.0,45.0,41.2,36.0,99,86,64,0.00,40.00,7,3,12,0.00
2013-5-24,58.0,46.2,33.0,41.0,37.0,32.0,97,73,44,0.00,40.00,7,4,11,0.00
2013-5-25,51.0,43.3,31.0,42.0,38.0,31.0,97,82,67,0.00,40.00,11,5,17,0.00
2013-5-26,49.0,41.7,31.0,44.0,38.5,31.0,99,89,72,0.00,40.00,6,3,10,0.00
2013-5-27,54.0,47.2,41.0,45.0,41.6,39.0,99,82,62,0.00,40.00,9,3,16,0.00
2013-5-28,67.0,50.0,32.0,43.0,37.8,32.0,99,68,33,0.00,40.00,9,4,12,0.00
2013-5-29,63.0,53.8,35.0,43.0,39.5,34.0,95,61,44,0.00,40.00,7,4,14,0.00
2013-5-30,57.0,47.9,38.0,46.0,41.5,38.0,99,81,55,0.00,40.00,7,2,14,0.00
2013-5-31,53.0,47.5,44.0,45.0,43.8,43.0,97,88,72,0.00,40.00,6,3,15,0.00
2013-6-1,51.0,47.0,44.0,46.0,43.7,42.0,98,89,73,0.00,40.00,7,2,12,0.00
2013-6-2,54.0,46.9,34.0,45.0,39.5,34.0,99,77,55,0.00,40.00,7,3,11,0.00
2013-6-3,54.0,48.8,42.0,44.0,41.1,35.0,97,77,52,0.00,40.00,9,3,19,0.00
2013-6-4,50.0,47.0,42.0,46.0,42.5,36.0,95,85,58,0.00,40.00,6,2,11,0.00
2013-6-5,53.0,44.8,32.0,44.0,37.9,32.0,99,79,51,0.00,40.00,6,3,9,0.00
2013-6-6,60.0,47.9,29.0,40.0,35.4,29.0,98,66,42,0.00,40.00,9,5,19,0.00
2013-6-7,61.0,50.7,37.0,40.0,36.8,34.0,91,61,42,0.00,40.00,7,4,15,0.00
2013-6-8,69.0,53.8,43.0,45.0,42.0,38.0,89,67,37,0.00,40.00,6,3,10,0.00
2013-6-9,71.0,56.2,38.0,47.0,41.4,37.0,96,62,34,0.00,40.00,9,4,14,0.00
2013-6-10,71.0,57.0,44.0,47.0,43.2,41.0,91,63,36,0.00,40.00,9,3,14,0.00
2013-6-11,68.0,55.0,39.0,47.0,42.4,38.0,97,66,41,0.00,40.00,6,3,11,0.00
2013-6-12,62.0,53.3,37.0,47.0,43.5,37.0,98,71,51,0.00,40.00,6,3,11,0.00
2013-6-13,59.0,48.4,43.0,46.0,43.8,42.0,99,85,60,0.00,40.00,9,3,19,0.00
2013-6-14,60.0,50.6,41.0,48.0,45.1,40.0,99,83,57,0.00,40.00,7,3,11,0.00
2013-6-15,57.0,49.4,42.0,47.0,44.8,41.0,99,86,65,0.00,40.00,6,2,9,0.00
2013-6-16,71.0,52.6,36.0,48.0,43.6,36.0,99,75,34,0.00,40.00,6,3,8,0.00
2013-6-17,78.0,55.0,42.0,50.0,45.5,41.0,97,74,31,0.00,40.00,6,3,9,0.00
2013-6-18,66.0,58.6,45.0,52.0,47.4,44.0,97,69,50,0.00,40.00,7,3,17,0.00
2013-6-19,59.0,53.2,44.0,54.0,48.0,43.0,98,83,70,0.00,40.00,6,3,11,0.00
2013-6-20,55.0,49.0,47.0,50.0,47.3,45.0,98,94,72,0.00,40.00,7,1,12,0.00
2013-6-22,53.0,49.6,35.0,48.0,45.4,35.0,99,86,77,0.00,40.00,4,2,10,0.00
2013-6-23,59.0,52.2,46.0,53.0,47.5,44.0,99,85,63,0.00,40.00,4,1,9,0.00
2013-6-24,62.0,55.2,49.0,52.0,48.4,47.0,94,79,59,0.00,40.00,5,2,12,0.00
2013-6-25,62.0,52.7,41.0,52.0,46.0,40.0,98,80,61,0.00,40.00,6,3,7,0.00
2013-6-26,71.0,55.9,43.0,58.0,49.1,43.0,99,80,50,0.00,40.00,5,3,9,0.00
2013-6-27,61.0,54.2,49.0,53.0,50.1,46.0,98,87,69,0.00,40.00,6,2,14,0.00
2013-6-28,56.0,52.9,48.0,50.0,48.5,46.0,96,86,76,0.00,40.00,4,2,10,0.00
2013-6-29,61.0,53.3,50.0,52.0,48.8,45.0,95,85,65,0.00,40.00,7,2,12,0.00
2013-6-30,55.0,50.3,43.0,50.0,46.8,42.0,98,88,73,0.00,40.00,4,-20,9,0.00
2013-7-1,54.0,50.7,48.0,52.0,49.1,47.0,99,94,82,0.00,40.00,4,1,13,0.00
2013-7-2,56.0,51.3,48.0,49.0,46.3,42.0,98,84,65,0.00,40.00,7,2,14,0.00
2013-7-3,53.0,50.1,46.0,48.0,46.2,45.0,97,87,75,0.00,40.00,6,2,12,0.00
2013-7-4,53.0,49.9,46.0,50.0,46.4,44.0,99,88,74,0.00,40.00,4,1,7,0.00
2013-7-5,55.0,51.2,47.0,53.0,49.1,46.0,97,92,83,0.00,40.00,4,-22,10,0.00
2013-7-6,54.0,50.9,48.0,52.0,49.5,47.0,99,96,87,0.00,40.00,3,1,8,0.00
2013-7-7,54.0,50.5,45.0,53.0,48.6,44.0,99,93,79,0.00,40.00,6,2,14,0.00
2013-7-8,62.0,50.1,43.0,49.0,44.0,-99.9,98,84,58,0.00,40.00,7,2,14,0.00
2013-7-9,65.0,54.9,46.0,47.0,45.3,44.0,93,72,50,0.00,40.00,9,-12,15,0.00
2013-7-10,67.0,56.8,42.0,50.0,43.0,-99.9,98,66,42,0.00,40.00,6,-28,11,0.00
2013-7-11,69.0,57.4,41.0,51.0,47.0,40.0,98,71,46,0.00,40.00,6,3,12,0.00
2013-7-12,69.0,56.5,43.0,51.0,46.3,42.0,98,72,44,0.00,40.00,7,3,11,0.00
2013-7-13,63.0,53.8,45.0,51.0,47.8,44.0,97,81,59,0.00,40.00,6,2,12,0.00
2013-7-14,61.0,54.4,48.0,51.0,48.7,47.0,98,82,64,0.00,40.00,9,3,16,0.00
2013-7-15,57.0,51.8,41.0,52.0,48.6,40.0,98,89,78,0.00,40.00,4,2,9,0.00
2013-7-16,68.0,56.2,51.0,53.0,51.0,49.0,96,84,57,0.00,40.00,7,2,12,0.00
2013-7-17,72.0,61.9,56.0,57.0,54.4,52.0,92,78,56,0.00,40.00,7,3,19,0.00
2013-7-18,72.0,63.9,57.0,58.0,56.2,55.0,93,77,60,0.00,40.00,6,3,17,0.00
2013-7-19,73.0,62.5,55.0,56.0,51.9,49.0,86,70,47,0.00,40.00,7,3,15,0.00
2013-7-20,72.0,61.5,53.0,53.0,47.2,-99.9,90,64,40,0.00,40.00,7,3,14,0.00
2013-7-21,67.0,58.4,40.0,49.0,46.1,40.0,99,66,45,0.00,40.00,5,3,7,0.00
2013-7-22,73.0,63.9,46.0,50.0,46.7,44.0,92,56,37,0.00,40.00,6,3,11,0.00
2013-7-23,68.0,57.8,46.0,55.0,49.9,45.0,97,77,59,0.00,40.00,4,2,6,0.00
2013-7-24,75.0,58.5,42.0,55.0,50.4,42.0,99,77,46,0.00,40.00,6,3,9,0.00
2013-7-25,70.0,63.4,53.0,57.0,54.8,51.0,95,75,60,0.00,40.00,7,3,16,0.00
2013-7-26,65.0,57.9,54.0,56.0,53.8,52.0,97,87,70,0.00,40.00,5,2,11,0.00
2013-7-27,64.0,56.8,53.0,58.0,53.3,51.0,99,89,69,0.00,40.00,7,3,11,0.00
2013-7-28,68.0,55.1,43.0,55.0,50.5,43.0,99,86,61,0.00,40.00,4,3,7,0.00
2013-7-29,70.0,58.2,47.0,56.0,52.5,46.0,98,83,59,0.00,40.00,7,3,13,0.00
2013-7-30,68.0,60.0,50.0,55.0,52.3,49.0,96,77,57,0.00,40.00,7,3,12,0.00
2013-7-31,62.0,54.4,42.0,54.0,50.5,42.0,99,87,71,0.00,40.00,8,3,14,0.00
2013-8-1,61.0,56.3,47.0,56.0,52.7,46.0,99,88,74,0.00,40.00,6,2,11,0.00
2013-8-2,62.0,57.5,53.0,56.0,53.6,52.0,98,88,75,0.00,40.00,4,1,13,0.00
2013-8-3,65.0,59.1,54.0,54.0,50.0,46.0,96,73,52,0.00,40.00,12,3,20,0.00
2013-8-4,59.0,54.9,51.0,57.0,53.5,50.0,98,95,89,0.00,40.00,4,1,8,0.00
2013-8-5,59.0,54.8,51.0,56.0,53.3,51.0,99,95,81,0.00,40.00,3,2,6,0.00
2013-8-6,65.0,57.2,51.0,54.0,51.5,49.0,98,83,57,0.00,40.00,6,2,12,0.00
2013-8-7,65.0,56.2,51.0,55.0,51.7,49.0,96,86,61,0.00,40.00,4,2,8,0.00
2013-8-8,57.0,52.9,51.0,52.0,50.1,45.0,98,91,63,0.00,40.00,3,1,7,0.00
2013-8-9,58.0,53.3,50.0,55.0,52.1,49.0,98,96,85,0.00,40.00,4,2,16,0.00
2013-8-10,58.0,52.9,47.0,53.0,49.2,46.0,99,88,68,0.00,40.00,4,2,8,0.00
2013-8-11,55.0,52.0,48.0,55.0,51.3,47.0,98,97,90,0.00,40.00,6,2,13,0.00
2013-8-12,59.0,56.0,53.0,58.0,55.3,53.0,98,97,94,0.00,40.00,6,2,13,0.00
2013-8-13,55.0,53.2,52.0,53.0,50.7,-99.9,98,93,85,0.00,40.00,4,-43,9,0.00
2013-8-14,59.0,52.5,40.0,53.0,44.6,-99.9,99,80,57,0.00,40.00,4,-27,7,0.00
2013-8-15,56.0,45.7,38.0,53.0,36.9,-99.9,98,89,73,0.00,40.00,5,-13,9,0.00
2013-8-16,55.0,49.8,43.0,54.0,47.5,-99.9,98,96,94,0.00,40.00,4,2,9,0.00
2013-8-17,64.0,55.3,53.0,57.0,52.7,-99.9,98,93,69,0.00,40.00,4,2,15,0.00
2013-8-18,63.0,55.4,51.0,58.0,52.7,50.0,98,91,74,0.00,40.00,4,1,7,0.00
2013-8-19,57.0,52.1,52.0,54.0,46.4,-99.9,97,93,80,0.00,40.00,3,-20,16,0.00
2013-8-20,61.0,54.0,51.0,53.0,49.8,-99.9,97,88,68,0.00,40.00,4,2,14,0.00
2013-8-21,54.0,53.4,52.0,54.0,51.7,48.0,97,94,83,0.00,40.00,4,2,12,0.00
2013-8-22,56.0,54.0,53.0,54.0,53.0,52.0,98,96,93,0.00,40.00,4,1,11,0.00
2013-8-23,69.0,58.4,47.0,53.0,49.1,44.0,95,74,41,0.00,40.00,7,3,12,0.00
2013-8-24,62.0,51.0,39.0,52.0,43.9,-99.9,99,81,51,0.00,40.00,5,3,9,0.00
2013-8-25,64.0,54.7,35.0,50.0,44.4,35.0,99,71,45,0.00,40.00,5,-29,14,0.00
2013-8-26,60.0,48.6,36.0,51.0,44.5,35.0,99,87,57,0.00,40.00,5,3,11,0.00
2013-8-27,56.0,47.5,44.0,54.0,45.8,43.0,98,95,73,0.00,40.00,6,3,7,0.00
2013-8-28,57.0,53.5,49.0,51.0,47.1,45.0,97,80,65,0.00,40.00,6,2,10,0.00
2013-8-29,55.0,53.0,51.0,54.0,52.2,50.0,98,98,97,0.00,40.00,5,2,14,0.00
2013-8-30,62.0,56.2,53.0,56.0,52.1,50.0,98,87,67,0.00,40.00,4,2,11,0.00
2013-8-31,57.0,53.5,51.0,54.0,49.3,-99.9,95,87,75,0.00,40.00,5,2,11,0.00
2013-9-1,56.0,51.4,45.0,52.0,48.6,44.0,97,90,80,0.00,40.00,4,2,7,0.00
2013-9-2,56.0,52.9,49.0,56.0,52.0,49.0,98,97,95,0.00,40.00,4,-20,11,0.00
2013-9-3,64.0,53.3,48.0,53.0,48.2,42.0,97,85,47,0.00,40.00,8,2,19,0.00
2013-9-4,59.0,51.6,43.0,51.0,47.0,41.0,98,85,56,0.00,40.00,4,2,16,0.00
2013-9-5,59.0,52.4,40.0,47.0,43.3,40.0,98,73,49,0.00,40.00,6,2,13,0.00
2013-9-6,52.0,49.1,44.0,50.0,47.1,42.0,97,93,83,0.00,40.00,6,3,26,0.00
2013-9-7,54.0,51.3,50.0,53.0,49.6,-99.9,98,96,92,0.00,40.00,4,2,17,0.00
2013-9-8,63.0,53.1,48.0,50.0,46.0,40.0,98,80,44,0.00,40.00,7,3,22,0.00
2013-9-9,58.0,52.4,49.0,55.0,49.2,44.0,98,89,71,0.00,40.00,4,-20,9,0.00
2013-9-10,59.0,53.3,50.0,55.0,51.5,49.0,99,94,77,0.00,40.00,4,1,7,0.00
2013-9-11,59.0,53.4,45.0,54.0,48.8,43.0,98,86,60,0.00,40.00,4,-20,19,0.00
2013-9-12,57.0,48.3,36.0,50.0,43.1,36.0,99,84,58,0.00,40.00,7,2,16,0.00
2013-9-13,57.0,52.4,48.0,52.0,48.2,45.0,92,86,78,0.00,40.00,5,2,17,0.00
2013-9-14,60.0,53.0,43.0,51.0,46.6,-99.9,97,82,59,0.00,40.00,4,2,14,0.00
2013-9-15,58.0,53.1,40.0,48.0,43.2,39.0,97,70,54,0.00,40.00,6,3,9,0.00
2013-9-16,60.0,51.7,35.0,48.0,42.9,34.0,99,74,47,0.00,40.00,6,2,10,0.00
2013-9-17,54.0,45.5,37.0,46.0,42.0,37.0,98,88,65,0.00,40.00,4,2,8,0.00
2013-9-18,49.0,40.5,36.0,42.0,38.9,35.0,99,94,72,0.00,40.00,4,2,6,0.00
2013-9-19,52.0,44.7,29.0,42.0,33.7,28.0,99,68,44,0.00,40.00,6,3,13,0.00
2013-9-20,49.0,41.7,26.0,31.0,26.1,22.0,96,57,38,0.00,40.00,6,3,15,0.00
2013-9-21,44.0,38.9,31.0,41.0,32.5,-99.9,92,79,65,0.00,40.00,5,2,16,0.00
2013-9-22,50.0,42.2,33.0,41.0,30.5,21.0,98,68,34,0.00,40.00,6,2,16,0.00
2013-9-23,51.0,42.3,28.0,27.0,24.0,21.0,92,52,31,0.00,40.00,6,3,18,0.00
2013-9-24,44.0,38.3,24.0,36.0,29.4,23.0,97,72,56,0.00,40.00,6,2,11,0.00
2013-9-25,51.0,44.9,38.0,48.0,43.4,36.0,99,94,77,0.00,40.00,6,2,14,0.00
2013-9-26,51.0,47.4,44.0,48.0,45.4,43.0,97,93,75,0.00,40.00,4,1,9,0.00
2013-9-27,53.0,47.9,43.0,45.0,41.1,38.0,98,79,62,0.00,40.00,7,3,23,0.00
2013-9-28,53.0,43.2,33.0,45.0,36.9,-99.9,99,82,48,0.00,40.00,8,4,21,0.00
2013-9-29,50.0,47.7,46.0,37.0,34.8,33.0,66,61,56,0.00,40.00,9,6,19,0.00
2013-9-30,51.0,46.0,33.0,37.0,34.5,31.0,94,65,53,0.00,40.00,9,5,20,0.00
2013-10-1,51.0,46.2,39.0,35.0,32.8,31.0,84,61,49,0.00,40.00,6,3,11,0.00
2013-10-2,49.0,40.5,32.0,42.0,37.4,32.0,99,88,71,0.00,40.00,6,2,9,0.00
2013-10-3,53.0,45.3,32.0,41.0,38.0,32.0,99,78,58,0.00,40.00,11,5,28,0.00
2013-10-4,51.0,46.3,35.0,46.0,40.2,33.0,96,80,63,0.00,40.00,4,3,9,0.00
2013-10-5,47.0,38.9,29.0,42.0,36.4,28.0,99,92,69,0.00,40.00,6,3,11,0.00
2013-10-6,49.0,41.4,37.0,44.0,38.6,35.0,99,91,63,0.00,40.00,5,3,17,0.00
2013-10-7,48.0,41.2,34.0,46.0,39.2,33.0,99,93,80,0.00,40.00,4,2,9,0.00
2013-10-8,50.0,45.4,43.0,48.0,42.3,33.0,99,90,63,0.00,40.00,9,-18,20,0.00
2013-10-9,49.0,45.4,37.0,39.0,31.7,26.0,81,60,43,0.00,40.00,17,9,29,0.00
2013-10-10,44.0,39.2,33.0,43.0,38.2,31.0,99,96,81,0.00,40.00,6,3,11,0.00
2013-10-11,48.0,43.5,41.0,46.0,42.4,40.0,98,96,87,0.00,40.00,3,1,7,0.00
2013-10-12,51.0,45.3,41.0,45.0,39.1,-99.9,99,83,59,0.00,40.00,10,3,18,0.00
2013-10-13,51.0,45.7,35.0,47.0,40.7,34.0,98,84,58,0.00,40.00,10,3,24,0.00
2013-10-14,51.0,42.1,32.0,45.0,37.3,32.0,99,84,63,0.00,40.00,6,3,12,0.00
2013-10-15,49.0,45.0,39.0,48.0,43.7,37.0,98,95,88,0.00,40.00,4,2,8,0.00
2013-10-16,52.0,46.2,39.0,48.0,43.6,38.0,98,90,68,0.00,40.00,9,2,17,0.00
2013-10-17,53.0,48.1,44.0,45.0,40.8,35.0,92,77,53,0.00,40.00,11,2,19,0.00
2013-10-18,50.0,46.4,41.0,44.0,38.5,34.0,96,75,56,0.00,40.00,11,3,20,0.00
2013-10-19,52.0,46.5,39.0,42.0,36.2,-99.9,97,70,52,0.00,40.00,11,5,26,0.00
2013-10-20,50.0,45.0,35.0,39.0,35.5,32.0,88,70,53,0.00,40.00,7,3,12,0.00
2013-10-21,47.0,39.1,31.0,40.0,35.8,30.0,99,89,71,0.00,40.00,6,3,9,0.00
2013-10-22,46.0,38.8,29.0,40.0,35.6,28.0,98,89,65,0.00,40.00,8,3,17,0.00
2013-10-23,42.0,35.4,27.0,36.0,31.1,26.0,99,85,60,0.00,40.00,7,4,12,0.00
2013-10-24,46.0,37.5,31.0,40.0,32.1,25.0,96,81,66,0.00,40.00,7,3,13,0.00
2013-10-25,48.0,36.0,28.0,38.0,33.1,27.0,99,91,57,0.00,40.00,9,4,11,0.00
2013-10-26,42.0,33.9,26.0,40.0,31.4,-99.9,99,93,84,0.00,40.00,7,4,19,0.00
2013-10-27,43.0,41.1,37.0,42.0,39.7,32.0,99,95,81,0.00,40.00,9,5,27,0.00
2013-10-28,47.0,44.5,42.0,47.0,43.2,-99.9,99,98,93,0.00,40.00,8,3,17,0.00
2013-10-29,47.0,41.6,33.0,42.0,37.7,33.0,98,87,64,0.00,40.00,7,3,17,0.00
2013-10-30,46.0,44.0,42.0,38.0,35.7,34.0,79,73,64,0.00,40.00,9,5,22,0.00
2013-10-31,45.0,41.6,36.0,44.0,39.7,36.0,99,93,79,0.00,40.00,6,2,9,0.00
2013-11-1,46.0,39.3,33.0,41.0,37.0,33.0,99,92,79,0.00,40.00,5,4,9,0.00
2013-11-2,41.0,34.0,28.0,35.0,31.0,27.0,99,89,71,0.00,40.00,6,-11,12,0.00
2013-11-3,45.0,37.2,31.0,42.0,35.1,30.0,98,93,81,0.00,40.00,9,3,14,0.00
2013-11-4,43.0,39.6,30.0,38.0,33.1,28.0,95,78,65,0.00,40.00,9,3,24,0.00
2013-11-5,45.0,32.4,27.0,36.0,30.0,22.0,98,92,65,0.00,40.00,6,4,7,0.00
2013-11-6,33.0,29.1,18.0,22.0,16.6,14.0,95,60,51,0.00,40.00,7,3,11,0.00
2013-11-7,32.0,29.7,28.0,22.0,19.2,15.0,74,65,58,0.00,40.00,8,4,17,0.00
2013-11-8,36.0,24.6,16.0,24.0,19.4,15.0,95,82,58,0.00,40.00,6,3,7,0.00
2013-11-9,44.0,32.2,20.0,41.0,29.1,-99.9,97,90,84,0.00,40.00,7,3,11,0.00
2013-11-10,44.0,40.2,33.0,42.0,38.9,32.0,97,95,84,0.00,40.00,9,3,14,0.00
2013-11-11,33.0,30.2,25.0,32.0,25.3,13.0,99,83,60,0.00,40.00,6,3,12,0.00
2013-11-12,28.0,21.0,13.0,20.0,13.3,11.0,92,74,51,0.00,40.00,7,4,12,0.00
2013-11-13,34.0,27.9,21.0,29.0,24.3,18.0,94,86,63,0.00,40.00,6,2,7,0.00
2013-11-14,48.0,38.4,27.0,41.0,32.5,25.0,98,82,43,0.00,40.00,10,4,20,0.00
2013-11-15,34.0,26.2,19.0,28.0,23.0,17.0,97,89,56,0.00,40.00,6,3,9,0.00
2013-11-16,29.0,24.0,17.0,17.0,8.7,-99.9,91,57,42,0.00,40.00,7,4,16,0.00
2013-11-17,24.0,19.1,10.0,12.0,5.3,3.0,77,55,44,0.00,40.00,10,5,22,0.00
2013-11-18,19.0,12.8,2.0,8.0,3.3,0.0,91,66,53,0.00,40.00,7,5,12,0.00
2013-11-19,20.0,13.7,8.0,13.0,3.2,-1.0,79,64,44,0.00,40.00,7,5,15,0.00
2013-11-20,20.0,9.4,7.0,16.0,0.6,-4.0,85,68,53,0.00,40.00,10,6,22,0.00
2013-11-21,21.0,11.1,8.0,18.0,3.4,-4.0,95,72,54,0.00,40.00,12,-13,27,0.00
2013-11-22,27.0,23.9,20.0,26.0,20.2,13.0,95,87,57,0.00,40.00,7,4,17,0.00
2013-11-23,34.0,28.9,15.0,30.0,24.5,-99.9,99,87,70,0.00,40.00,9,5,17,0.00
2013-11-24,34.0,32.7,30.0,34.0,31.8,28.0,99,97,84,0.00,40.00,3,1,7,0.00
2013-11-25,32.0,29.6,25.0,29.0,26.0,24.0,99,87,73,0.00,40.00,6,3,15,0.00
2013-11-26,34.0,31.4,29.0,30.0,28.0,25.0,95,87,77,0.00,40.00,5,2,8,0.00
2013-11-27,31.0,27.2,22.0,29.0,25.3,17.0,98,94,65,0.00,40.00,7,2,16,0.00
2013-11-28,11.0,2.7,-3.0,8.0,0.1,-6.0,91,89,88,0.00,40.00,9,7,11,0.00
2013-11-29,15.0,8.1,-2.0,6.0,0.9,-7.0,87,73,62,0.00,40.00,7,5,11,0.00
2013-11-30,11.0,7.7,2.0,3.0,-2.8,-99.9,82,68,64,0.00,40.00,6,3,12,0.00
2013-12-1,18.0,13.8,6.0,7.0,1.8,-3.0,72,59,49,0.00,40.00,6,3,15,0.00
2013-12-2,25.0,12.5,0.0,16.0,4.9,-5.0,83,72,51,0.00,40.00,8,3,11,0.00
2013-12-3,27.0,19.7,11.0,26.0,17.8,8.0,96,92,88,0.00,40.00,6,2,10,0.00
2013-12-4,31.0,28.6,25.0,28.0,25.2,23.0,96,87,79,0.00,40.00,5,-22,10,0.00
2013-12-5,33.0,31.0,29.0,32.0,29.1,24.0,99,93,80,0.00,40.00,6,2,11,0.00
2013-12-6,35.0,33.1,32.0,34.0,33.0,31.0,99,99,99,0.00,40.00,3,1,6,0.00
2013-12-7,35.0,33.0,32.0,34.0,32.1,-99.9,99,98,99,0.00,40.00,3,1,7,0.00
2013-12-8,33.0,31.8,29.0,33.0,31.6,29.0,99,99,99,0.00,40.00,4,1,7,0.00
2013-12-9,33.0,32.7,30.0,33.0,32.6,30.0,99,99,99,0.00,40.00,2,1,7,0.00
2013-12-10,32.0,30.8,28.0,32.0,30.0,23.0,99,97,84,0.00,40.00,7,-18,20,0.00
2013-12-11,28.0,22.3,15.0,24.0,15.6,8.0,85,76,62,0.00,40.00,7,4,12,0.00
2013-12-12,14.0,7.0,2.0,10.0,3.7,-1.0,88,87,78,0.00,40.00,7,4,10,0.00
2013-12-13,18.0,15.3,4.0,16.0,11.8,1.0,93,87,76,0.00,40.00,7,5,19,0.00
2013-12-14,23.0,18.2,15.0,22.0,15.1,-99.9,95,89,85,0.00,40.00,9,5,15,0.00
2013-12-15,18.0,14.7,5.0,15.0,11.2,2.0,90,86,79,0.00,40.00,9,4,16,0.00
2013-12-16,7.0,5.0,-4.0,4.0,1.2,-9.0,88,84,80,0.00,40.00,6,4,9,0.00
2013-12-18,15.0,5.6,-6.0,11.0,1.8,-9.0,89,84,79,0.00,40.00,9,4,19,0.00
2013-12-19,20.0,15.5,8.0,14.0,11.6,5.0,90,85,74,0.00,40.00,8,4,18,0.00
2013-12-20,24.0,22.2,17.0,22.0,16.9,11.0,92,80,69,0.00,40.00,5,2,13,0.00
2013-12-21,32.0,28.6,24.0,31.0,26.6,-99.9,98,94,92,0.00,40.00,6,2,12,0.00
2013-12-22,33.0,31.0,27.0,32.0,29.9,24.0,99,96,75,0.00,40.00,9,3,17,0.00
2013-12-23,28.0,17.5,4.0,25.0,10.2,-1.0,95,75,47,0.00,40.00,12,5,25,0.00
2013-12-24,11.0,6.4,4.0,6.0,0.2,-2.0,88,75,66,0.00,40.00,7,5,18,0.00
2013-12-25,14.0,8.5,-2.0,0.0,-1.8,-5.0,84,63,53,0.00,40.00,7,4,16,0.00
2013-12-26,1.0,1.0,1.0,-2.0,-2.0,-2.0,86,86,86,0.00,40.00,2,2,4,0.00
2013-12-27,17.0,11.7,-1.0,14.0,4.0,-5.0,86,71,61,0.00,40.00,8,4,18,0.00
2013-12-28,23.0,19.0,14.0,19.0,15.3,-99.9,93,87,83,0.00,40.00,7,3,15,0.00
2013-12-29,28.0,23.5,17.0,23.0,20.0,15.0,95,87,74,0.00,40.00,9,-18,19,0.00
2013-12-30,26.0,24.7,17.0,21.0,18.8,12.0,84,79,73,0.00,40.00,6,3,14,0.00
2013-12-31,30.0,25.3,18.0,28.0,22.2,15.0,95,88,84,0.00,40.00,11,5,27,0.00
2014-1-1,37.0,34.6,29.0,36.0,33.0,28.0,98,94,88,0.00,40.00,9,4,20,0.00
2014-1-2,32.0,27.0,20.0,32.0,25.7,19.0,98,95,90,0.00,40.00,6,3,7,0.00